Overview Statistics Trail Chart Weather Telemetry Raw packets
 

This is the latest recevied weather packets stored in our database for station/object KN6CRX-10. If no packets are shown the sender has not sent any weather packets the latest 10 day(s).

<< 14 15 16 17 18 19 20 >>
Time Temp. Humidity Pressure Rain* Wind** Luminosity Snow
1788322014 17.22° C 58% 1015.2 hPa 0 mm - 0 W/m² -
1788321710 17.22° C 60% 1015.1 hPa 0 mm - 0 W/m² -
1788321408 17.78° C 59% 1015.3 hPa 0 mm - 0 W/m² -
1788321103 17.78° C 59% 1015.2 hPa 0 mm - 0 W/m² -
1788320812 17.78° C 58% 1015.1 hPa 0 mm - 0 W/m² -
1788320503 18.33° C 60% 1015.2 hPa 0 mm - 0 W/m² -
1788320202 18.33° C 55% 1015.2 hPa 0 mm - 0 W/m² -
1788319897 18.33° C 53% 1015.1 hPa 0 mm - 0 W/m² -
1788319595 18.33° C 54% 1015.1 hPa 0 mm - 0 W/m² -
1788319296 18.33° C 53% 1015.1 hPa 0 mm - 0 W/m² -
1788318990 18.33° C 54% 1015.1 hPa 0 mm - 0 W/m² -
1788318686 18.89° C 53% 1014.9 hPa 0 mm - 0 W/m² -
1788318381 18.89° C 51% 1015.1 hPa 0 mm - 0 W/m² -
1788318081 19.44° C 52% 1014.8 hPa 0 mm - 0 W/m² -
1788317780 19.44° C 51% 1015.2 hPa 0 mm - 0 W/m² -
1788317476 20° C 50% 1014.8 hPa 0 mm - 0 W/m² -
1788317172 20° C 50% 1014.8 hPa 0 mm - 0 W/m² -
1788316872 20.56° C 49% 1014.7 hPa 0 mm - 0 W/m² -
1788316568 20.56° C 48% 1014.9 hPa 0 mm - 0 W/m² -
1788316262 20.56° C 46% 1014.9 hPa 0 mm - 0 W/m² -
1788315962 20.56° C 47% 1014.9 hPa 0 mm - 0 W/m² -
1788315658 21.11° C 47% 1014.8 hPa 0 mm - 0 W/m² -
1788315353 21.11° C 48% 1014.8 hPa 0 mm - 0 W/m² -
1788315048 21.11° C 47% 1014.8 hPa 0 mm - 1 W/m² -
1788314744 21.67° C 48% 1014.8 hPa 0 mm - 2 W/m² -

* Rain latest hour (hover to see other rain measurements)
** Current wind speed in m/s (hover to see current wind gust speed)